Location: Unspecified
(0.0000°N, 0.0000°E)
Time: 04:44:18
(UTC+00:00)

Explorer 7 - All Passes

Search period start: 27 July 2017 00:00
Search period end: 06 August 2017 00:00
Orbit: 486 x 684 km, 50.3° (Epoch: 26 July)

Date Brightness Start Highest point End Pass type
(mag) Time Alt. Az. Time Alt. Az. Time Alt. Az.
27 Jul - 04:35:32 10° SW 04:40:26 87° NW 04:45:22 10° NE visible
27 Jul - 16:39:40 10° NW 16:43:21 53° SW 16:47:00 10° SSE daylight
28 Jul - 03:02:44 10° SSE 03:05:39 16° SE 03:08:35 10° E visible
28 Jul - 04:41:33 10° SW 04:46:10 42° NW 04:50:50 10° NNE visible
28 Jul - 15:06:25 10° NNE 15:08:45 15° NE 15:11:02 10° E daylight
28 Jul - 16:46:06 10° WNW 16:49:05 22° SW 16:52:04 10° S daylight
29 Jul - 03:07:10 10° S 03:11:25 30° SE 03:15:44 10° ENE visible
29 Jul - 04:48:11 10° WSW 04:51:57 22° NW 04:55:42 10° N visible
29 Jul - 15:11:01 10° NNW 15:14:31 34° NE 15:17:58 10° ESE daylight
30 Jul - 03:12:22 10° SSW 03:17:09 62° SE 03:22:01 10° NE visible
30 Jul - 04:56:28 10° WNW 04:57:45 11° NW 04:59:03 10° NW visible
30 Jul - 15:16:26 10° NW 15:20:16 88° ENE 15:24:01 10° SE daylight
31 Jul - 01:42:03 10° SE 01:42:21 10° SE 01:42:40 10° SE night (unlit)
31 Jul - 03:18:05 10° SW 03:22:53 65° NW 03:27:46 10° NNE visible
31 Jul - 15:22:27 10° WNW 15:25:59 36° SW 15:29:28 10° SSE daylight
01 Aug - 01:44:36 10° S 01:48:08 20° SE 01:51:45 10° E night (unlit)
01 Aug - 03:24:20 10° WSW 03:28:38 32° NW 03:33:01 10° N visible
01 Aug - 13:48:20 10° N 13:51:24 22° NE 13:54:24 10° ESE daylight
01 Aug - 15:29:19 10° W 15:31:44 16° SW 15:34:07 10° SSW daylight
02 Aug - 01:49:24 10° SSW 01:53:52 40° SE 01:58:28 10° ENE night (unlit)
02 Aug - 03:31:24 10° W 03:34:26 16° NW 03:37:30 10° NNW visible
02 Aug - 13:53:21 10° NNW 13:57:09 51° NE 14:00:51 10° SE daylight
03 Aug - 01:54:51 10° SW 01:59:36 84° SE 02:04:30 10° NE night (unlit)
03 Aug - 13:59:02 10° NW 14:02:53 62° SW 14:06:38 10° SSE daylight
04 Aug - 00:22:34 10° SSE 00:24:52 13° SE 00:27:11 10° E night (unlit)
04 Aug - 02:00:46 10° SW 02:05:20 47° NW 02:10:03 10° NNE night (unlit)
04 Aug - 12:25:57 10° NNE 12:28:13 15° NE 12:30:26 10° E daylight
04 Aug - 14:05:20 10° WNW 14:08:36 26° SW 14:11:48 10° S daylight
05 Aug - 00:26:42 10° S 00:30:36 26° SE 00:34:39 10° ENE night (unlit)
05 Aug - 02:07:17 10° WSW 02:11:06 24° NW 02:15:00 10° N night (unlit)
05 Aug - 12:30:25 10° NNW 12:34:01 32° NE 12:37:29 10° ESE daylight
05 Aug - 14:12:56 10° WSW 14:14:21 12° SW 14:15:44 10° SSW daylight
